| time (UTC) | temp F | wind direction | speed MPH | gust MPH | rain 1hr in | rain 24hr in | rain mn in | humidity % | barometer mb |
| 20260509152849 | 79 | 51 | 1.0 | 1.0 | 0.00 | 0.00 | 0.00 | 76 | 1010.8 |
| 20260509145850 | 78 | 328 | 3.0 | 5.0 | 0.00 | 0.00 | 0.00 | 78 | 1010.9 |
| 20260509142845 | 77 | 279 | 3.0 | 3.0 | 0.00 | 0.00 | 0.00 | 82 | 1010.7 |
| 20260509135843 | 74 | 335 | 3.0 | 3.0 | 0.00 | 0.00 | 0.00 | 87 | 1010.9 |
| 20260509132839 | 73 | 322 | 1.0 | 1.0 | 0.00 | 0.00 | 0.00 | 90 | 1010.7 |
| 20260509125837 | 71 | 275 | 1.0 | 1.0 | 0.00 | 0.00 | 0.00 | 92 | 1010.6 |
| 20260509122834 | 69 | 291 | 0.0 | 0.0 | 0.00 | 0.00 | 0.00 | 99 | 1010.7 |
| 20260509115831 | 69 | 181 | 0.0 | 0.0 | 0.00 | 0.00 | 0.00 | 99 | 1010.3 |
| 20260509112828 | 69 | 180 | 0.0 | 0.0 | 0.00 | 0.00 | 0.00 | 98 | 1009.6 |
| 20260509105829 | 0 | 0.0 | 0.0 | 0.00 | 0.00 | 0.00 | 1009.4 | ||
| 20260509102825 | 70 | 312 | 0.0 | 0.0 | 0.00 | 0.00 | 0.00 | 97 | 1009.4 |
| 20260509095823 | 70 | 323 | 0.0 | 0.0 | 0.00 | 0.00 | 0.00 | 97 | 1009.0 |
| 20260509092819 | 70 | 32 | 0.0 | 0.0 | 0.00 | 0.00 | 0.00 | 96 | 1008.3 |
| 20260509085814 | 70 | 183 | 3.0 | 3.0 | 0.00 | 0.00 | 0.00 | 97 | 1006.9 |
| 20260509082814 | 70 | 158 | 1.0 | 2.0 | 0.00 | 0.00 | 0.00 | 96 | 1008.7 |
| 20260509075810 | 70 | 126 | 2.0 | 2.0 | 0.00 | 0.00 | 0.00 | 95 | 1010.1 |
| 20260509072808 | 71 | 166 | 1.0 | 1.0 | 0.00 | 0.00 | 0.00 | 94 | 1010.8 |
| 20260509065805 | 70 | 283 | 0.0 | 0.0 | 0.00 | 0.00 | 0.00 | 94 | 1010.6 |
| 20260509062804 | 70 | 216 | 0.0 | 0.0 | 0.00 | 0.00 | 0.00 | 94 | 1010.8 |
| 20260509055802 | 71 | 286 | 0.0 | 0.0 | 0.00 | 0.00 | 0.00 | 92 | 1011.4 |
| 20260509052803 | 71 | 354 | 1.0 | 1.0 | 0.00 | 0.00 | 0.00 | 90 | 1011.7 |
| 20260509045757 | 73 | 173 | 1.0 | 2.0 | 0.00 | 0.00 | 0.00 | 88 | 1010.3 |
| 20260509042754 | 72 | 185 | 2.0 | 2.0 | 0.00 | 0.00 | 0.00 | 87 | 1010.5 |
| 20260509035754 | 73 | 23 | 0.0 | 0.0 | 0.00 | 0.00 | 0.00 | 85 | 1011.2 |
| 20260509032753 | 73 | 150 | 2.0 | 2.0 | 0.00 | 0.00 | 0.00 | 85 | 1010.3 |
| 20260509025749 | 73 | 210 | 0.0 | 0.0 | 0.00 | 0.00 | 0.00 | 85 | 1010.1 |
| 20260509022744 | 72 | 149 | 1.0 | 2.0 | 0.00 | 0.00 | 0.00 | 84 | 1009.8 |
| 20260509015741 | 73 | 186 | 1.0 | 1.0 | 0.00 | 0.00 | 0.00 | 83 | 1009.3 |
| 20260509012739 | 73 | 152 | 1.0 | 2.0 | 0.00 | 0.00 | 0.00 | 82 | 1009.4 |
| 20260509005734 | 73 | 216 | 1.0 | 1.0 | 0.00 | 0.00 | 0.00 | 82 | 1008.7 |
| 20260509002733 | 74 | 188 | 2.0 | 2.0 | 0.00 | 0.00 | 0.00 | 80 | 1008.7 |
| 20260508235733 | 74 | 144 | 1.0 | 1.0 | 0.00 | 0.00 | 0.00 | 79 | 1009.1 |
| 20260508232729 | 75 | 194 | 0.0 | 1.0 | 0.00 | 0.00 | 0.00 | 77 | 1009.2 |
| 20260508225729 | 76 | 159 | 3.0 | 5.0 | 0.00 | 0.00 | 0.00 | 74 | 1009.4 |
| 20260508222724 | 76 | 155 | 3.0 | 3.0 | 0.00 | 0.00 | 0.00 | 72 | 1009.4 |
| 20260508215719 | 76 | 146 | 4.0 | 6.0 | 0.00 | 0.00 | 0.00 | 73 | 1009.2 |
| 20260508212717 | 76 | 71 | 0.0 | 1.0 | 0.00 | 0.00 | 0.00 | 73 | 1008.8 |
| 20260508205714 | 73 | 164 | 2.0 | 3.0 | 0.00 | 0.00 | 0.00 | 76 | 1010.1 |
| 20260508202709 | 73 | 187 | 1.0 | 1.0 | 0.00 | 0.00 | 0.00 | 77 | 1011.3 |
| 20260508195707 | 75 | 219 | 2.0 | 2.0 | 0.00 | 0.00 | 0.00 | 73 | 1011.2 |
| 20260508192704 | 76 | 126 | 3.0 | 5.0 | 0.00 | 0.00 | 0.00 | 71 | 1011.3 |
| 20260508185703 | 76 | 215 | 3.0 | 6.0 | 0.00 | 0.00 | 0.00 | 70 | 1011.6 |
| 20260508182701 | 78 | 170 | 2.0 | 3.0 | 0.00 | 0.00 | 0.00 | 65 | 1011.8 |
| 20260508175659 | 78 | 200 | 1.0 | 1.0 | 0.00 | 0.00 | 0.00 | 66 | 1012.3 |
| 20260508172658 | 78 | 132 | 3.0 | 3.0 | 0.00 | 0.00 | 0.00 | 63 | 1012.6 |
| 20260508165656 | 76 | 226 | 2.0 | 2.0 | 0.00 | 0.00 | 0.00 | 66 | 1013.5 |
| 20260508162654 | 75 | 166 | 1.0 | 2.0 | 0.00 | 0.00 | 0.00 | 67 | 1014.1 |